SKX2212 SPJL-SPJC

Flight info

Callsign SKX2212
Flight time N/A
Altitude 38000
Route OPKUL UM415 ASOXI ESEDI3
Aircraft A20N/M-SD3/L

Departure

Time 2026-04-25 20:43
Airport Inca Manco Capac International Airport (SPJL)

Arrival

Time N/A
Airport Jorge Chávez International Airport (SPJC)
Time Latitude Longitude Altitude Speed Heading
2026-04-25 20:43 -15.45202 -70.03123 16368 ft 295 kts 261°
2026-04-25 20:43 -15.45530 -70.05255 16549 ft 305 kts 262°
2026-04-25 20:43 -15.45839 -70.07465 16690 ft 314 kts 263°
2026-04-25 20:44 -15.46136 -70.09750 16814 ft 323 kts 263°
2026-04-25 20:44 -15.46426 -70.12067 16920 ft 331 kts 263°
2026-04-25 20:44 -15.46481 -70.14476 17000 ft 338 kts 278°
2026-04-25 20:44 -15.45888 -70.16852 17135 ft 344 kts 293°
2026-04-25 20:45 -15.44782 -70.19091 17283 ft 351 kts 299°
2026-04-25 20:45 -15.43579 -70.21301 17412 ft 357 kts 300°
2026-04-25 20:45 -15.42342 -70.23565 17626 ft 360 kts 300°
2026-04-25 20:45 -15.41121 -70.25818 17946 ft 361 kts 300°
2026-04-25 20:46 -15.39899 -70.28083 18339 ft 362 kts 300°
2026-04-25 20:46 -15.38664 -70.30385 18792 ft 364 kts 300°
2026-04-25 20:46 -15.37448 -70.32658 19243 ft 365 kts 300°
2026-04-25 20:46 -15.36220 -70.34956 19661 ft 366 kts 300°
2026-04-25 20:47 -15.34981 -70.37275 20056 ft 368 kts 300°
2026-04-25 20:47 -15.33745 -70.39590 20448 ft 370 kts 300°
2026-04-25 20:47 -15.32501 -70.41918 20836 ft 371 kts 300°
2026-04-25 20:47 -15.31238 -70.44285 21208 ft 374 kts 300°
2026-04-25 20:48 -15.29993 -70.46616 21584 ft 376 kts 300°
2026-04-25 20:48 -15.28713 -70.49015 21972 ft 377 kts 300°
2026-04-25 20:48 -15.27441 -70.51394 22353 ft 379 kts 300°
2026-04-25 20:48 -15.26168 -70.53774 22728 ft 381 kts 300°
2026-04-25 20:49 -15.24881 -70.56181 23103 ft 383 kts 300°
2026-04-25 20:49 -15.23600 -70.58576 23492 ft 384 kts 300°
2026-04-25 20:49 -15.22306 -70.60994 23898 ft 386 kts 300°
2026-04-25 20:49 -15.20993 -70.63447 24319 ft 388 kts 300°
2026-04-25 20:50 -15.19678 -70.65902 24727 ft 390 kts 300°
2026-04-25 20:50 -15.18353 -70.68375 25131 ft 393 kts 300°
2026-04-25 20:50 -15.17033 -70.70836 25528 ft 395 kts 300°
2026-04-25 20:50 -15.15690 -70.73341 25921 ft 397 kts 300°
2026-04-25 20:51 -15.14345 -70.75848 26308 ft 400 kts 300°
2026-04-25 20:51 -15.12994 -70.78366 26690 ft 402 kts 300°
2026-04-25 20:51 -15.11627 -70.80913 27066 ft 405 kts 300°
2026-04-25 20:51 -15.10275 -70.83431 27424 ft 407 kts 300°
2026-04-25 20:52 -15.08880 -70.86028 27787 ft 410 kts 300°
2026-04-25 20:52 -15.07999 -70.87746 28029 ft 412 kts 295°
2026-04-25 20:52 -15.07183 -70.91618 28510 ft 418 kts 269°
2026-04-25 20:52 -15.07644 -70.94566 28890 ft 421 kts 253°
2026-04-25 20:53 -15.08619 -70.97424 29261 ft 423 kts 250°
2026-04-25 20:53 -15.09589 -71.00288 29580 ft 426 kts 256°
2026-04-25 20:53 -15.10030 -71.03312 29894 ft 428 kts 270°
2026-04-25 20:53 -15.09784 -71.06370 30242 ft 428 kts 282°
2026-04-25 20:54 -15.08897 -71.09308 30581 ft 430 kts 292°
2026-04-25 20:54 -15.07730 -71.12183 30912 ft 432 kts 294°
2026-04-25 20:54 -15.06535 -71.15044 31215 ft 436 kts 294°
2026-04-25 20:54 -15.05343 -71.17907 31520 ft 439 kts 294°
2026-04-25 20:55 -15.04134 -71.20834 31831 ft 442 kts 294°
2026-04-25 20:55 -15.02939 -71.23743 32131 ft 444 kts 293°
2026-04-25 20:55 -15.01720 -71.26721 32427 ft 447 kts 293°
2026-04-25 20:55 -15.00518 -71.29666 32704 ft 449 kts 293°
2026-04-25 20:56 -14.99296 -71.32661 33003 ft 450 kts 293°
2026-04-25 20:56 -14.98094 -71.35609 33354 ft 450 kts 293°
2026-04-25 20:56 -14.96880 -71.38584 33716 ft 449 kts 293°
2026-04-25 20:56 -14.95666 -71.41557 34062 ft 447 kts 293°
2026-04-25 20:57 -14.94456 -71.44521 34392 ft 447 kts 293°
2026-04-25 20:57 -14.93255 -71.47465 34720 ft 446 kts 293°
2026-04-25 20:57 -14.92050 -71.50410 35047 ft 445 kts 293°
2026-04-25 20:57 -14.90856 -71.53330 35362 ft 444 kts 293°
2026-04-25 20:58 -14.89661 -71.56252 35672 ft 443 kts 292°
2026-04-25 20:58 -14.88448 -71.59218 35980 ft 443 kts 292°
2026-04-25 20:58 -14.87260 -71.62119 36270 ft 442 kts 292°
2026-04-25 20:58 -14.86064 -71.65043 36542 ft 441 kts 293°
2026-04-25 20:59 -14.84852 -71.68000 36809 ft 441 kts 293°
2026-04-25 20:59 -14.83657 -71.70916 37066 ft 440 kts 293°
2026-04-25 20:59 -14.82475 -71.73798 37318 ft 440 kts 293°
2026-04-25 20:59 -14.81289 -71.76691 37553 ft 439 kts 293°
2026-04-25 21:00 -14.80092 -71.79609 37776 ft 438 kts 293°
2026-04-25 21:00 -14.79698 -71.80569 37844 ft 438 kts 293°
2026-04-25 21:00 -14.76522 -71.88300 38344 ft 438 kts 293°
2026-04-25 21:01 -14.75339 -71.91177 38489 ft 439 kts 293°
2026-04-25 21:01 -14.74146 -71.94078 38641 ft 440 kts 292°
2026-04-25 21:01 -14.72945 -71.96997 38798 ft 440 kts 292°
2026-04-25 21:01 -14.71761 -71.99873 38932 ft 441 kts 292°
2026-04-25 21:02 -14.70558 -72.02797 38996 ft 441 kts 293°
2026-04-25 21:02 -14.68152 -72.08631 39023 ft 441 kts 293°
2026-04-25 21:03 -14.65763 -72.14423 39011 ft 441 kts 293°
2026-04-25 21:03 -14.63366 -72.20231 39030 ft 441 kts 293°